Weather History for KTKI - January, 2013

Change the Weather History Date:

Friday, January 18, 2013

  Actual Average (KDFW) Record (KDFW)
Temperature  
Mean Temperature 43 °F 46 °F  
Max Temperature 59 °F 56 °F 80 °F (1923)
Min Temperature 27 °F 35 °F -1 °F (1930)
Degree Days  
Heating Degree Days 22 19  
Month to date heating degree days 353  
Since 1 July heating degree days 1265  
Cooling Degree Days 0 0  
Month to date cooling degree days 0  
Year to date cooling degree days 0  
Moisture  
Dew Point 31 °F    
Average Humidity 66    
Maximum Humidity 89    
Minimum Humidity 36    
Precipitation  
Precipitation 0.00 in 0.07 in 1.99 in (1990)
Month to date precipitation 1.14  
Year to date precipitation 1.14  
Snow  
Snow 0.00 in 0.00 in 3.80 in (1956)
Month to date snowfall 0.1  
Since 1 July snowfall 0.4  
Snow Depth -    
Sea Level Pressure  
Sea Level Pressure 30.45 in    
Wind  
Wind Speed 4 mph (South)    
Max Wind Speed 16 mph    
Max Gust Speed 20 mph    
Visibility 10 miles    
Events      
T = Trace of Precipitation, MM = Missing Value Source: NWS Daily Summary

Daily Weather History Graph

Daily Weather History Graph

Search for Another Location

Airport or City:

Trip Planner

Search our weather history database for the weather conditions in past years. The results will help you decide how hot, cold, wet, or windy it might be!

Date:

Astronomy

Jan. 18, 2013 Rise Set
Actual Time 7:28 AM CST 5:45 PM CST
Civil Twilight 7:02 AM CST 6:11 PM CST
Nautical Twilight 6:31 AM CST 6:42 PM CST
Astronomical Twilight 6:02 AM CST 7:11 PM CST
Moon 11:33 AM CST (1/18) 12:12 AM CST (1/18)
Length of Visible Light 11h 09m
Length of Day
10h 16m
Waxing Crescent, 47% of the Moon is Illuminated
Jan 18
Waxing Crescent
Jan 18
First Quarter
Jan 26
Full
Feb 3
Last Quarter
Feb 10
New

Hourly Weather History & Observations

Time (CST) Temp. Windchill Dew Point Humidity Pressure Visibility Wind Dir Wind Speed Gust Speed Precip Events Conditions
12:53 AM 33.1 °F - 27.0 °F 78% 30.56 in 10.0 mi Calm Calm - N/A   Clear
1:53 AM 30.9 °F - 27.0 °F 85% 30.56 in 10.0 mi Calm Calm - N/A   Clear
2:53 AM 28.9 °F - 26.1 °F 89% 30.56 in 10.0 mi Calm Calm - N/A   Clear
3:53 AM 28.9 °F - 25.0 °F 85% 30.55 in 10.0 mi Calm Calm - N/A   Clear
4:53 AM 28.0 °F - 25.0 °F 88% 30.53 in 10.0 mi Calm Calm - N/A   Clear
5:53 AM 28.0 °F - 25.0 °F 88% 30.53 in 10.0 mi Calm Calm - N/A   Clear
6:53 AM 27.0 °F - 23.0 °F 85% 30.54 in 10.0 mi Calm Calm - N/A   Clear
7:53 AM 27.0 °F - 24.1 °F 89% 30.54 in 10.0 mi Calm Calm - N/A   Clear
8:53 AM 34.0 °F - 28.9 °F 82% 30.54 in 10.0 mi Calm Calm - N/A   Clear
9:53 AM 43.0 °F 36.8 °F 34.0 °F 71% 30.55 in 10.0 mi SSE 11.5 mph - N/A   Clear
10:53 AM 51.1 °F - 34.0 °F 52% 30.53 in 10.0 mi SSE 11.5 mph - N/A   Clear
11:53 AM 55.0 °F - 33.1 °F 43% 30.49 in 10.0 mi South 15.0 mph - N/A   Clear
12:53 PM 57.0 °F - 33.1 °F 40% 30.45 in 10.0 mi South 13.8 mph - N/A   Clear
1:53 PM 57.9 °F - 32.0 °F 37% 30.41 in 10.0 mi SSW 11.5 mph 19.6 mph N/A   Clear
2:53 PM 59.0 °F - 32.0 °F 36% 30.39 in 10.0 mi SSE 11.5 mph - N/A   Clear
3:53 PM 59.0 °F - 32.0 °F 36% 30.37 in 10.0 mi South 16.1 mph - N/A   Clear
4:53 PM 57.9 °F - 35.1 °F 42% 30.37 in 10.0 mi SSE 8.1 mph - N/A   Clear
5:53 PM 53.1 °F - 35.1 °F 50% 30.36 in 10.0 mi SSE 8.1 mph - N/A   Clear
6:53 PM 48.9 °F - 35.1 °F 59% 30.37 in 10.0 mi South 6.9 mph - N/A   Clear
7:53 PM 43.0 °F 38.2 °F 34.0 °F 71% 30.37 in 10.0 mi South 8.1 mph - N/A   Clear
8:53 PM 43.0 °F 38.2 °F 34.0 °F 71% 30.36 in 10.0 mi South 8.1 mph - N/A   Clear
9:53 PM 42.1 °F 37.1 °F 34.0 °F 73% 30.34 in 10.0 mi SSE 8.1 mph - N/A   Clear
10:53 PM 41.0 °F 36.4 °F 33.1 °F 73% 30.32 in 10.0 mi South 6.9 mph - N/A   Clear
11:53 PM 43.0 °F 37.7 °F 34.0 °F 71% 30.30 in 10.0 mi South 9.2 mph - N/A   Clear